Location: Espelette
(43.3402°N, 1.4474°W)
Time: 19:52:27
(UTC+00:00)

ATLAS 3B R/B - Pass Details

Date: 19 May 2025
Orbit: 935 x 1258 km, 63.8° (Epoch: 21 June)

Event Time Altitude Azimuth Distance (km) Brightness Sun altitude
Exits shadow 21:30:07 18° 107° (ESE) 2,524 4.2 -17.7°
Maximum altitude 21:30:24 18° 104° (ESE) 2,526 4.2 -17.7°
Drops below altitude 10° 21:35:14 10° 64° (ENE) 3,171 5.1 -18.2°
Sets 21:39:02 0° 48° (NE) 4,179 5.9 -18.7°
